DW7394 Weather Reports


Display with metric or nautical units.
time (UTC)temp
F
wind
direction
speed
MPH
gust
MPH
rain 1hr
in
rain 24hr
in
rain mn
in
humidity
%
barometer
mb
20260507184025 52 307 3.0 12.0 0.00 0.01 0.00 59 1012.0
20260507183523 52 322 4.0 12.0 0.00 0.01 0.00 58 1012.0
20260507183035 52 309 4.0 15.0 0.00 0.01 0.00 58 1012.1
20260507182523 52 344 8.0 15.0 0.00 0.01 0.00 57 1012.1
20260507182023 52 6 7.0 15.0 0.00 0.01 0.00 56 1012.1
20260507181523 53 334 2.0 14.0 0.00 0.01 0.00 57 1012.1
20260507181024 53 313 6.0 14.0 0.00 0.01 0.00 55 1012.1
20260507180525 53 1 4.0 10.0 0.00 0.01 0.00 56 1012.1
20260507180022 53 319 3.0 14.0 0.00 0.01 0.00 56 1012.0
20260507175520 53 295 5.0 14.0 0.00 0.01 0.00 55 1012.1
20260507175020 53 334 5.0 14.0 0.00 0.01 0.00 55 1012.0
20260507174520 53 344 7.0 17.0 0.00 0.01 0.00 53 1012.1
20260507174020 54 8 3.0 17.0 0.00 0.01 0.00 55 1012.2
20260507173519 54 15 5.0 13.0 0.00 0.01 0.00 54 1012.1
20260507173020 54 333 4.0 17.0 0.00 0.01 0.00 54 1012.2
20260507172520 54 316 7.0 17.0 0.00 0.01 0.00 55 1012.2
20260507172016 54 345 8.0 15.0 0.00 0.01 0.00 55 1012.3
20260507171515 54 311 3.0 14.0 0.00 0.01 0.00 55 1012.2
20260507171015 54 323 6.0 11.0 0.00 0.01 0.00 56 1012.2
20260507170514 54 8 4.0 9.0 0.00 0.01 0.00 55 1012.3
20260507170013 54 332 5.0 15.0 0.00 0.01 0.00 55 1012.4
20260507165513 54 351 6.0 15.0 0.00 0.01 0.00 59 1012.3
20260507165013 53 345 3.0 9.0 0.00 0.01 0.00 60 1012.3
20260507164512 53 347 3.0 9.0 0.00 0.01 0.00 58 1012.3
20260507164015 53 344 4.0 8.0 0.00 0.01 0.00 60 1012.3
20260507163512 53 345 3.0 12.0 0.00 0.01 0.00 58 1012.4
20260507163012 53 302 6.0 15.0 0.00 0.01 0.00 58 1012.3
20260507162512 54 299 7.0 15.0 0.00 0.01 0.00 59 1012.3
20260507162014 54 264 2.0 7.0 0.00 0.01 0.00 60 1012.4
20260507161512 54 297 2.0 11.0 0.00 0.01 0.00 58 1012.4
20260507161010 55 283 5.0 11.0 0.00 0.01 0.00 57 1012.4
20260507160510 55 315 4.0 13.0 0.00 0.01 0.00 58 1012.4
20260507160013 55 301 5.0 13.0 0.00 0.01 0.00 57 1012.3
20260507155509 55 335 4.0 9.0 0.00 0.01 0.00 54 1012.3
20260507155011 56 342 2.0 10.0 0.00 0.01 0.00 51 1012.3
20260507154508 56 328 6.0 11.0 0.00 0.01 0.00 51 1012.3
20260507154009 56 163 5.0 15.0 0.00 0.01 0.00 55 1012.3
20260507153508 55 235 7.0 15.0 0.00 0.01 0.00 59 1012.3
20260507153005 54 232 6.0 13.0 0.00 0.01 0.00 54 1012.4
20260507152505 54 332 2.0 10.0 0.00 0.01 0.00 54 1012.4
20260507152004 54 236 3.0 11.0 0.00 0.01 0.00 55 1012.4
20260507151504 54 236 3.0 11.0 0.00 0.01 0.00 54 1012.5
20260507151002 55 248 2.0 14.0 0.00 0.01 0.00 55 1012.5
20260507150502 55 278 3.0 14.0 0.00 0.01 0.00 55 1012.5
20260507150110 55 239 4.0 14.0 0.00 0.01 0.00 55 1012.5
20260507145601 54 222 3.0 9.0 0.00 0.01 0.00 56 1012.4
20260507145104 55 303 2.0 10.0 0.00 0.01 0.00 58 1012.4
20260507144559 55 324 3.0 10.0 0.00 0.01 0.00 56 1012.5
20260507144058 55 316 2.0 8.0 0.00 0.01 0.00 56 1012.5
20260507143556 54 250 4.0 8.0 0.00 0.01 0.00 57 1012.4
20260507143100 54 51 2.0 11.0 0.00 0.01 0.00 57 1012.4
20260507142555 54 290 4.0 12.0 0.00 0.01 0.00 56 1012.5
20260507142053 54 208 4.0 12.0 0.00 0.01 0.00 60 1012.5
20260507141553 53 223 4.0 11.0 0.00 0.01 0.00 61 1012.6
20260507141050 53 8 2.0 6.0 0.00 0.01 0.00 62 1012.6
20260507140550 52 112 2.0 11.0 0.00 0.01 0.00 64 1012.7
20260507140049 52 344 6.0 11.0 0.00 0.01 0.00 66 1012.7
20260507135551 51 248 4.0 9.0 0.00 0.01 0.00 66 1012.9
20260507135047 51 290 2.0 8.0 0.00 0.01 0.00 68 1012.9
20260507134547 51 345 2.0 7.0 0.00 0.01 0.00 68 1012.9
20260507134043 50 20 2.0 6.0 0.00 0.01 0.00 68 1012.9
20260507133543 50 319 2.0 9.0 0.00 0.01 0.00 69 1013.0
20260507133042 50 236 2.0 10.0 0.00 0.01 0.00 71 1013.0
20260507132540 49 236 5.0 10.0 0.00 0.01 0.00 70 1013.1
20260507132038 49 271 5.0 10.0 0.00 0.01 0.00 70 1013.1
20260507131538 48 198 1.0 11.0 0.00 0.01 0.00 70 1013.1
20260507131037 48 257 5.0 11.0 0.00 0.01 0.00 70 1013.1
20260507130635 48 255 4.0 10.0 0.00 0.01 0.00 70 1013.1
20260507130054 47 208 2.0 7.0 0.00 0.01 0.00 70 1013.1
20260507125535 47 130 1.0 6.0 0.00 0.01 0.00 69 1013.1
20260507125033 47 236 2.0 8.0 0.00 0.01 0.00 69 1013.1
20260507124533 47 250 3.0 11.0 0.00 0.01 0.00 70 1013.1
20260507124032 47 239 4.0 11.0 0.00 0.01 0.00 71 1013.1
20260507123531 47 250 6.0 11.0 0.00 0.01 0.00 72 1013.2
20260507123033 46 241 3.0 11.0 0.00 0.01 0.00 72 1013.0
20260507122529 46 239 4.0 12.0 0.00 0.01 0.00 73 1013.1
20260507122028 46 190 8.0 12.0 0.00 0.01 0.00 73 1013.0
20260507121527 46 231 7.0 12.0 0.00 0.01 0.00 73 1012.9
20260507121025 45 309 3.0 9.0 0.00 0.01 0.00 73 1013.0
20260507120533 45 240 4.0 11.0 0.00 0.01 0.00 74 1013.0
20260507120033 45 211 7.0 13.0 0.00 0.01 0.00 74 1012.7
20260507115522 45 205 6.0 13.0 0.00 0.01 0.00 74 1012.7
20260507115024 44 186 6.0 15.0 0.00 0.01 0.00 74 1012.8
20260507114521 44 243 9.0 15.0 0.00 0.01 0.00 75 1012.8
20260507114020 44 178 6.0 14.0 0.00 0.01 0.00 75 1012.7
20260507113520 43 215 5.0 11.0 0.00 0.01 0.00 75 1012.8
20260507113019 43 239 6.0 11.0 0.00 0.01 0.00 75 1012.8
20260507112518 43 208 5.0 9.0 0.00 0.01 0.00 75 1012.8
20260507112016 43 222 5.0 11.0 0.00 0.01 0.00 75 1012.7
20260507111518 43 217 6.0 11.0 0.00 0.01 0.00 75 1012.7
20260507111015 43 221 6.0 10.0 0.00 0.01 0.00 75 1012.7
20260507110516 43 229 5.0 0.0 0.00 0.00 0.00 75 1012.6
20260507110015 43 220 5.0 9.0 0.00 0.01 0.00 75 1012.6
20260507105513 42 221 3.0 7.0 0.00 0.01 0.00 75 1012.6
20260507105013 42 229 4.0 8.0 0.00 0.01 0.00 74 1012.6
20260507104515 42 210 4.0 8.0 0.00 0.01 0.00 74 1012.6
20260507104013 42 236 4.0 10.0 0.00 0.01 0.00 74 1012.5
20260507103512 42 214 4.0 10.0 0.00 0.01 0.00 74 1012.4
20260507103011 43 211 4.0 9.0 0.00 0.01 0.00 74 1012.4
20260507102510 43 208 4.0 9.0 0.00 0.01 0.00 74 1012.4
20260507102010 43 192 5.0 9.0 0.00 0.01 0.00 74 1012.3
20260507101510 43 190 4.0 9.0 0.00 0.01 0.00 74 1012.4
20260507101014 43 186 4.0 9.0 0.00 0.01 0.00 73 1012.4
20260507100509 43 212 4.0 8.0 0.00 0.01 0.00 73 1012.4
20260507100009 43 203 4.0 8.0 0.00 0.01 0.00 73 1012.4
20260507095509 43 190 4.0 7.0 0.00 0.04 0.00 73 1012.4
20260507095009 43 221 4.0 8.0 0.00 0.04 0.00 73 1012.3
20260507094508 43 213 4.0 8.0 0.00 0.04 0.00 72 1012.4
20260507094010 43 238 4.0 9.0 0.00 0.04 0.00 72 1012.4
20260507093508 43 250 4.0 13.0 0.00 0.04 0.00 72 1012.4
20260507093008 43 257 5.0 13.0 0.00 0.04 0.00 72 1012.4
20260507092512 43 218 5.0 11.0 0.00 0.04 0.00 72 1012.4
20260507092012 43 228 5.0 11.0 0.00 0.04 0.00 72 1012.3
20260507091508 43 218 5.0 11.0 0.00 0.04 0.00 72 1012.3
20260507091005 43 199 5.0 11.0 0.00 0.04 0.00 72 1012.4
20260507090510 43 235 5.0 12.0 0.00 0.04 0.00 72 1012.5
20260507090006 43 202 7.0 12.0 0.00 0.04 0.00 72 1012.5
20260507085505 43 213 6.0 11.0 0.00 0.10 0.00 72 1012.4
20260507085005 43 179 6.0 11.0 0.00 0.10 0.00 72 1012.4
20260507084505 43 227 6.0 11.0 0.00 0.10 0.00 72 1012.4
20260507084004 43 223 5.0 14.0 0.00 0.10 0.00 72 1012.4
20260507083507 43 231 6.0 14.0 0.00 0.10 0.00 72 1012.5
20260507083004 43 198 5.0 12.0 0.00 0.10 0.00 72 1012.5
20260507082501 43 206 6.0 12.0 0.00 0.10 0.00 72 1012.6
20260507082001 43 245 4.0 10.0 0.00 0.10 0.00 72 1012.6
20260507081501 43 259 6.0 11.0 0.00 0.10 0.00 72 1012.6
20260507081100 43 196 4.0 11.0 0.00 0.10 0.00 72 1012.7
20260507080600 43 211 3.0 9.0 0.00 0.10 0.00 72 1012.6
20260507080059 43 217 4.0 9.0 0.00 0.10 0.00 72 1012.6
20260507075558 43 233 4.0 8.0 0.00 0.16 0.00 72 1012.6
20260507075057 43 160 4.0 10.0 0.00 0.16 0.00 72 1012.5
20260507074611 43 222 4.0 10.0 0.00 0.16 0.00 73 1012.6
20260507074055 42 199 4.0 8.0 0.00 0.16 0.00 73 1012.6
20260507073657 42 210 3.0 8.0 0.00 0.16 0.00 74 1012.6
20260507073101 42 199 3.0 7.0 0.00 0.16 0.00 74 1012.7
20260507072554 42 134 3.0 8.0 0.00 0.16 0.00 74 1012.7
20260507072054 42 168 4.0 8.0 0.00 0.16 0.00 75 1012.7
20260507071554 42 196 3.0 7.0 0.00 0.16 0.00 75 1012.8
20260507071052 42 192 3.0 7.0 0.00 0.16 0.00 75 1012.7
20260507070554 42 208 3.0 7.0 0.00 0.16 0.00 75 1012.7
20260507070051 42 188 3.0 7.0 0.00 0.16 0.00 75 1012.8
20260507065550 42 193 3.0 7.0 0.00 0.19 0.00 75 1012.7
20260507065150 42 160 3.0 8.0 0.00 0.19 0.00 75 1012.8
20260507064549 42 201 4.0 10.0 0.00 0.19 0.00 76 1013.0
20260507064052 42 197 4.0 10.0 0.00 0.19 0.00 76 1012.9
20260507063549 42 158 4.0 9.0 0.00 0.19 0.00 76 1012.9
20260507063049 42 173 4.0 9.0 0.00 0.19 0.00 75 1013.0
20260507062546 42 154 4.0 8.0 0.00 0.19 0.00 75 1013.0
20260507062045 42 173 4.0 7.0 0.00 0.19 0.00 75 1013.1
20260507061545 43 192 3.0 7.0 0.00 0.19 0.00 75 1013.2
20260507061043 43 135 2.0 7.0 0.00 0.19 0.00 75 1013.2
20260507060541 43 183 2.0 8.0 0.00 0.19 0.00 75 1013.2
20260507060041 43 199 3.0 8.0 0.00 0.19 0.00 75 1013.2
20260507055540 43 218 2.0 6.0 0.00 0.25 0.00 75 1013.2
20260507055042 43 166 3.0 6.0 0.00 0.25 0.00 75 1013.2
20260507054542 43 140 3.0 6.0 0.00 0.25 0.00 75 1013.3
20260507054038 43 201 2.0 5.0 0.00 0.25 0.00 75 1013.3
20260507053537 43 130 2.0 8.0 0.00 0.25 0.00 74 1013.3
20260507053037 43 164 3.0 8.0 0.00 0.25 0.00 75 1013.2
20260507052537 44 133 3.0 6.0 0.00 0.25 0.00 74 1013.3
20260507052035 44 154 2.0 6.0 0.00 0.25 0.00 74 1013.3
20260507051535 44 135 3.0 6.0 0.00 0.25 0.00 74 1013.4
20260507051134 44 143 2.0 6.0 0.00 0.25 0.00 74 1013.5
20260507050532 44 158 3.0 8.0 0.00 0.25 0.00 74 1013.5
20260507050037 44 126 3.0 7.0 0.00 0.25 0.00 74 1013.6
20260507045530 44 163 2.0 6.0 0.00 0.28 0.00 74 1013.6
20260507045030 44 147 2.0 8.0 0.00 0.28 0.00 74 1013.6
20260507044536 44 84 3.0 8.0 0.00 0.28 0.00 75 1013.6
20260507044029 44 165 3.0 8.0 0.00 0.28 0.00 75 1013.6
20260507043528 44 144 3.0 9.0 0.00 0.28 0.00 75 1013.6
20260507043027 44 147 3.0 9.0 0.00 0.28 0.00 75 1013.6
20260507042525 44 84 2.0 6.0 0.00 0.28 0.00 75 1013.7
20260507042025 44 147 2.0 5.0 0.00 0.28 0.00 75 1013.6
20260507041531 44 112 1.0 5.0 0.00 0.28 0.00 75 1013.7
20260507041023 44 117 1.0 5.0 0.00 0.28 0.00 75 1013.7
20260507040522 44 76 2.0 4.0 0.00 0.28 0.00 75 1013.7
20260507040021 44 140 2.0 4.0 0.00 0.28 0.00 75 1013.9
20260507035520 44 192 2.0 4.0 0.00 0.38 0.28 75 1013.9
20260507035021 44 192 1.0 5.0 0.00 0.38 0.28 75 1014.0
20260507034521 44 160 2.0 5.0 0.00 0.38 0.28 75 1014.0
20260507034021 44 173 2.0 4.0 0.00 0.38 0.28 74 1014.0
20260507033521 44 130 1.0 4.0 0.00 0.38 0.28 74 1014.0
20260507033025 44 112 2.0 4.0 0.00 0.38 0.28 73 1014.1
20260507032523 44 84 1.0 4.0 0.00 0.38 0.28 73 1014.2
20260507032019 44 98 1.0 3.0 0.00 0.38 0.28 73 1014.1
20260507031525 45 192 1.0 3.0 0.00 0.38 0.28 73 1014.1
20260507031022 45 130 0.0 2.0 0.00 0.38 0.28 72 1014.1
20260507030519 45 173 1.0 2.0 0.00 0.38 0.28 72 1014.2
20260507030019 45 211 1.0 2.0 0.00 0.38 0.28 72 1014.2
20260507025517 45 41 0.0 2.0 0.00 0.53 0.28 71 1014.2
20260507025017 45 173 0.0 2.0 0.00 0.53 0.28 71 1014.0
20260507024518 45 84 1.0 2.0 0.00 0.53 0.28 71 1013.9
20260507024017 45 130 0.0 2.0 0.00 0.53 0.28 71 1013.9
20260507023525 45 84 0.0 2.0 0.00 0.53 0.28 71 1013.9
20260507023017 46 201 0.0 2.0 0.00 0.53 0.28 71 1013.9
20260507022516 46 130 1.0 2.0 0.00 0.53 0.28 70 1013.9
20260507022018 46 156 1.0 2.0 0.00 0.53 0.28 70 1013.9
20260507021516 46 147 1.0 3.0 0.00 0.53 0.28 70 1013.8
20260507021018 46 41 1.0 3.0 0.00 0.53 0.28 70 1013.7
20260507020514 46 147 1.0 3.0 0.00 0.53 0.28 70 1013.9
20260507020015 46 103 0.0 2.0 0.00 0.53 0.28 70 1013.8
20260507015514 46 84 0.0 2.0 0.00 0.61 0.28 70 1013.9
20260507015013 46 84 0.0 2.0 0.00 0.61 0.28 70 1013.8
20260507014517 46 112 0.0 2.0 0.00 0.61 0.28 70 1013.6
20260507014013 46 84 0.0 2.0 0.00 0.61 0.28 69 1013.5
20260507013513 46 95 1.0 2.0 0.00 0.61 0.28 69 1013.4
20260507013020 46 130 0.0 2.0 0.00 0.61 0.28 69 1013.5
20260507012511 46 84 1.0 2.0 0.00 0.61 0.28 69 1013.4
20260507012011 46 41 0.0 2.0 0.00 0.61 0.28 69 1013.5
20260507011517 46 58 0.0 2.0 0.00 0.61 0.28 69 1013.3
20260507011009 46 34 1.0 2.0 0.00 0.61 0.28 69 1013.4
20260507010512 47 67 0.0 2.0 0.00 0.61 0.28 69 1013.4
20260507010009 47 356 1.0 2.0 0.00 0.61 0.28 69 1013.4
20260507005508 47 58 0.0 2.0 0.00 0.71 0.28 69 1013.4
20260507005009 47 41 0.0 2.0 0.00 0.71 0.28 69 1013.3
20260507004522 47 10 1.0 3.0 0.00 0.71 0.28 69 1013.4
20260507004009 47 41 0.0 3.0 0.00 0.71 0.28 68 1013.3
20260507003510 47 356 1.0 3.0 0.00 0.71 0.28 68 1013.3
20260507003008 47 23 1.0 2.0 0.00 0.71 0.28 68 1013.4
20260507002508 47 41 0.0 2.0 0.00 0.71 0.28 68 1013.4
20260507002008 47 30 1.0 2.0 0.00 0.71 0.28 68 1013.4
20260507001507 47 15 0.0 2.0 0.00 0.71 0.28 68 1013.4
20260507001007 47 156 1.0 0.0 0.00 0.00 0.28 68 1013.4
20260507000507 47 356 1.0 3.0 0.00 0.71 0.28 67 1013.3
20260507000009 47 84 1.0 2.0 0.00 0.71 0.28 67 1013.3
20260506235507 47 356 0.0 3.0 0.00 0.76 0.28 67 1013.3
20260506235006 47 84 1.0 3.0 0.00 0.76 0.28 67 1013.4
20260506234507 47 356 1.0 3.0 0.00 0.76 0.28 67 1013.3
20260506234005 47 58 1.0 5.0 0.00 0.76 0.28 66 1013.3
20260506233505 47 10 2.0 5.0 0.00 0.76 0.28 66 1013.3
20260506233005 47 58 2.0 6.0 0.00 0.76 0.28 66 1013.3
20260506232503 47 41 1.0 8.0 0.00 0.76 0.28 66 1013.2
20260506232003 47 342 3.0 8.0 0.00 0.76 0.28 66 1013.1
20260506231509 47 41 3.0 10.0 0.00 0.76 0.28 65 1013.1
20260506231003 48 6 5.0 10.0 0.00 0.76 0.28 65 1013.0
20260506230501 48 356 6.0 9.0 0.00 0.76 0.28 65 1013.2
20260506230002 48 339 4.0 9.0 0.00 0.76 0.28 65 1013.2
20260506225501 48 348 4.0 8.0 0.00 0.92 0.28 65 1013.1
20260506225001 48 322 3.0 8.0 0.00 0.92 0.28 65 1013.0
20260506224501 48 326 4.0 9.0 0.00 0.92 0.28 65 1013.1
20260506224002 48 320 4.0 9.0 0.00 0.92 0.28 64 1013.0
20260506223501 48 314 3.0 9.0 0.00 0.92 0.28 64 1013.1
20260506223100 48 337 4.0 10.0 0.00 0.92 0.28 65 1013.1
20260506222603 48 346 4.0 10.0 0.00 0.92 0.28 65 1013.0
20260506222059 48 4 3.0 9.0 0.00 0.92 0.28 64 1012.9
20260506221558 49 27 4.0 9.0 0.00 0.92 0.28 65 1012.9
20260506221057 49 303 3.0 8.0 0.00 0.92 0.28 65 1012.9
20260506220556 49 356 2.0 8.0 0.00 0.92 0.28 65 1012.7
20260506220057 49 46 3.0 8.0 0.00 0.92 0.28 65 1012.8
20260506215555 49 330 3.0 10.0 0.00 1.18 0.28 65 1012.8
20260506215055 49 332 6.0 11.0 0.00 1.18 0.28 65 1012.7
20260506214553 49 321 5.0 11.0 0.00 1.18 0.28 65 1012.6
20260506214053 49 18 4.0 9.0 0.00 1.18 0.28 65 1012.4
20260506213552 49 29 3.0 11.0 0.00 1.18 0.28 65 1012.3
20260506213108 49 15 6.0 11.0 0.00 1.18 0.28 66 1012.2
20260506212552 49 335 5.0 9.0 0.00 1.18 0.28 66 1012.2
20260506212153 49 4 3.0 9.0 0.00 1.18 0.28 66 1012.2
20260506211604 49 350 6.0 9.0 0.00 1.18 0.28 66 1012.2
20260506211051 49 356 5.0 9.0 0.00 1.18 0.28 66 1012.2
20260506210551 49 356 3.0 7.0 0.00 1.18 0.28 66 1012.1
20260506210051 50 10 3.0 8.0 0.00 1.18 0.28 66 1012.2
20260506205550 50 334 5.0 8.0 0.00 1.34 0.28 65 1012.2
20260506205050 50 3 4.0 8.0 0.00 1.34 0.28 66 1012.2
20260506204556 50 338 4.0 11.0 0.00 1.34 0.28 65 1012.2
20260506204049 50 10 4.0 15.0 0.00 1.34 0.28 65 1012.2
20260506203549 50 356 4.0 15.0 0.00 1.34 0.28 65 1012.1
20260506203052 51 341 5.0 13.0 0.00 1.34 0.28 64 1012.1
20260506202549 51 27 6.0 13.0 0.01 1.34 0.28 63 1011.9
20260506202052 51 3 5.0 10.0 0.01 1.34 0.28 63 1011.9
20260506201559 51 281 3.0 11.0 0.01 1.34 0.28 63 1012.0
20260506201048 51 4 4.0 13.0 0.01 1.34 0.28 62 1012.1
20260506200547 51 351 7.0 13.0 0.01 1.34 0.28 60 1012.1
20260506200052 51 311 5.0 11.0 0.01 1.34 0.28 60 1012.0
20260506195547 51 333 2.0 12.0 0.01 1.39 0.28 58 1012.1
20260506195049 52 306 6.0 14.0 0.01 1.39 0.28 58 1012.2
20260506194557 52 329 7.0 14.0 0.01 1.39 0.28 57 1012.1
20260506194046 52 319 3.0 14.0 0.01 1.39 0.28 59 1012.2
20260506193547 52 314 2.0 11.0 0.01 1.39 0.28 56 1012.1
20260506193045 52 300 5.0 11.0 0.00 1.38 0.28 58 1012.0
20260506192548 52 310 4.0 12.0 0.00 1.38 0.28 60 1012.0
20260506192044 52 4 5.0 13.0 0.00 1.38 0.28 62 1012.1
20260506191547 52 84 2.0 17.0 0.00 1.38 0.28 61 1012.2
20260506191044 52 356 9.0 17.0 0.00 1.38 0.28 62 1012.2
20260506190542 52 23 5.0 15.0 0.00 1.38 0.28 61 1012.1
20260506190040 53 28 6.0 14.0 0.00 1.38 0.28 63 1012.0
20260506185539 52 4 3.0 13.0 0.00 1.38 0.28 64 1012.2
20260506185042 52 295 4.0 13.0 0.00 1.38 0.28 66 1012.2
20260506184537 52 339 3.0 15.0 0.00 1.38 0.28 66 1012.1